{"data":{"norad_id":60903,"intl_designator":"2024-154A","name":"STARLINK-11242 [DTC]","alt_names":[],"object_type":"PAYLOAD","status":"ACTIVE","operator":null,"country":"US","launch_date":"2024-08-31","launch_site_code":"AFETR","launch_vehicle":null,"mission":null,"orbit_class":"UNKNOWN","rcs_meters":null,"size_class":null,"mass_kg":null,"dimensions":null,"purposes":["comms"],"wikipedia_slug":null,"has_3d_model":false,"image_url":null,"decayed_at":null,"tle_current":{"epoch":"2026-09-21T22:55:30.645120Z","epoch_age_seconds":62785,"freshness":"FRESH","line1":"1 60903U 24154A   26264.95521580 -.00000840  00000+0 -20722-5 0  9990","line2":"2 60903  53.1600 243.4883 0001080  86.3345 273.7797 15.69708278119348","mean_motion":15.69708278,"eccentricity":0.000108,"inclination_deg":53.16,"raan_deg":243.4883,"arg_perigee_deg":86.3345,"mean_anomaly_deg":273.7797,"bstar":-2.0722e-6,"rev_number":11934,"period_min":91.736790853568,"perigee_km":359.0039883119,"apogee_km":360.45936794638,"semimajor_km":6737.8686781291,"source":"CELESTRAK","updated_at":"2026-09-22T09:00:49.282035Z"}}}